KUIPER-00493

导读

KUIPER-00493(NORAD编号69596)是亚马逊公司“柯伊伯(Project Kuiper)”低轨互联网星座的组网卫星。该星座计划部署3232颗低轨卫星,为全球偏远乡村、海上等网络覆盖不足区域提供高带宽、低延迟的互联网接入服务,同时面向企业、政府机构提供通信支持,可结合亚马逊云计算能力赋能远程教育、航空机载互联等场景。 该卫星属于柯伊伯项目第五次发射批次,2025年9月由ULA公司Atlas V火箭从佛罗里达州卡纳维拉尔角发射升空,初始部署高度465公里,后续抬升至工作轨道,目前在轨运行,是柯伊伯星座截至2025年9月累计129颗在轨卫星之一。

基本信息
目录编号:
69596
目录名称:
KUIPER-00493
国际标识:
2026-140E
轨道中心:
EARTH
卫星名称:
KUIPER-00493
卫星全名:
KUIPER-00493
卫星状态:
在轨 (已飞行70 天)
发射日期:
2026-06-17 UTC
国别 :
美国 (US)
星等 :
--
轨道信息
数据来源 国际轨道数据 AOE轨道数据
星历时间 2026-08-26T06:27:00+0800
12小时前
查看轨道信息
2026-08-24T17:00:00+0800
2天前
查看轨道信息
半长轴 7007.664km 7007.674km
偏心率 0.0001533 0.0001291
轨道倾角 51.904° 51.903°
近地点辐角 178.406° 180.419°
升交点赤经 72.238° 79.142°
平近点角 181.690° 141.099°
近地点 628.452km 628.632km
远地点 630.602km 630.442km
周期 97.302分钟 97.302分钟
每日圈数 14.799359 14.799328
详细信息
使用方式:
暂无
2D轨道图
3D轨道图
轨道高度分析图
轨道倾角分析图
轨道综合分析图
查看轨道综合分析图